Regional Weather Roundup
Issued by NWS

Home | Current Version | Previous Version | Text Only | Print | Product List | Glossary On
Versions: 1 2 3 4 5 6 7 8 9 10 11 12 13 14 15 16 17 18 19 20 21 22 23 24 25 26 27 28 29 30 31 32 33 34 35 36 37 38 39 40 41 42 43 44 45 46 47 48 49 50
000
ASHW40 PHFO 271612
RWRHI

WEATHER ROUNDUP FOR HAWAII
NATIONAL WEATHER SERVICE HONOLULU HI
600 AM HST THU APR 27 2017

THIS IS AN AUTOMATED REPORT THAT HAS NOT BEEN QUALITY CONTROLLED.

NOTE..."FAIR" INDICATES FEW OR NO CLOUDS BELOW 12,000 FEET WITH NO
SIGNIFICANT WEATHER AND/OR OBSTRUCTIONS TO VISIBILITY.

* - THESE SITES REPORT LIMITED FIELDS

HIZ001>004-271700-
KAUAI-NIIHAU-

CITY           SKY/WX    TMP DP  RH WIND       PRES   REMARKS
LIHUE APT      LGT RAIN  70  67  90 W9        30.05R
PORT ALLEN*      N/A     68 N/A N/A NE1         N/A
POIPU*           N/A     70 N/A N/A N5G10       N/A
PRINCEVILLE*     N/A     68 N/A N/A SW5         N/A
KOKOLE POINT*  NOT AVBL
MOLOAA DAIRY*    N/A     70  66  88 W2          N/A
WAIMEA HTS*    NOT AVBL
PUU OPAE*      NOT AVBL
PUU LUA*       NOT AVBL
MAKAHA RIDGE*  NOT AVBL
$$

HIZ005>011-271700-
OAHU-

CITY           SKY/WX    TMP DP  RH WIND       PRES   REMARKS
HONOLULU       MOCLDY    73  66  78 N3        30.02R
KALAELOA       CLEAR     70  64  81 NE3       30.04R
KANEOHE MCB    NOT AVBL
WHEELER FIELD  NOT AVBL
BELLOWS*       NOT AVBL
KAHUKU*        NOT AVBL
WHEELER*       NOT AVBL
WAIANAE HARBOR NOT AVBL
DILLINGHAM*      N/A     88  86  94 CALM        N/A  HX 116
KAHUKU TRN*      N/A     82  81  94 CALM        N/A  HX  95
KAWAILOA*        N/A     66  63  88 NE3G12      N/A
KII*             N/A     73  68  83 E12         N/A
MAKUA RANGE*     N/A     66  61  82 NW3         N/A
OAHU FOREST NW NOT AVBL
SCHOFIELD BRK*   N/A    N/A N/A N/A MISG        N/A
SCHOFIELD S*   NOT AVBL
WAIANAE VLY*   NOT AVBL
KUAOKALA*      NOT AVBL
HONOULIUULI*   NOT AVBL
MOKUOLOE IS*   NOT AVBL
PALEHUA*       NOT AVBL
WAIAWA PHB*    NOT AVBL
$$

HIZ012>013-271700-
MOLOKAI-

CITY           SKY/WX    TMP DP  RH WIND       PRES   REMARKS
MOLOKAI AIRPT  CLEAR     60  60 100 NE5       30.03R
KALAUPAPA      NOT AVBL
MAKAPULAPAI*   NOT AVBL
MOLOKAI 1*     NOT AVBL
PUU ALII*      NOT AVBL
$$

HIZ016-271700-
KAHOOLAWE-

CITY           SKY/WX    TMP DP  RH WIND       PRES   REMARKS
KAHOOLAWE*     NOT AVBL
HAKIOAWA*      NOT AVBL
HONOKANAIA*      N/A     71  61  70 N6G14     29.95R
KANELOA*         N/A    N/A N/A N/A NE9G18    30.06S
KEALIALALO*    NOT AVBL
LUA MAKIKA*    NOT AVBL
$$

HIZ014>015-271700-
LANAI-

CITY           SKY/WX    TMP DP  RH WIND       PRES   REMARKS
LANAI CITY     FAIR      66  62  87 N5        30.07R
LANAI 1*       NOT AVBL
$$

HIZ017>028-271700-
MAUI-

CITY           SKY/WX    TMP DP  RH WIND       PRES   REMARKS
KAHULUI        PTCLDY    68  62  81 SE6       30.01R
KAPALUA-W MAUI NOT AVBL
HANA AIRPORT   NOT AVBL
HANA*            N/A     70 N/A N/A SE3         N/A
HALEAKALA SUMM   N/A     48 -17   6 E6G23       N/A
MAALAEA BAY*   NOT AVBL
HALEAKALA*     NOT AVBL
KAUPO GAP*     NOT AVBL
KULA 1*          N/A    N/A N/A N/A E5          N/A
$$

HIZ023>026-271700-
BIG ISLAND OF HAWAII COAST AND LOWER SLOPES-

CITY           SKY/WX    TMP DP  RH WIND       PRES   REMARKS
KAILUA KONA    PTCLDY    76  67  73 SE3       29.99R
HILO           PTCLDY    67  57  70 SW7       30.02S
HONOKAA*         N/A     61 N/A N/A VRB1        N/A
KAWAIHAE MWT*    N/A     77 N/A N/A NW2         N/A
KAWAIHAE*      NOT AVBL
SOUTH POINT*     N/A     68 N/A N/A NW10        N/A
UPOLU AIRPORT* NOT AVBL
KAMUELA*       SUNNY     52  48  87 E8        30.12R
HAKALAU*         N/A     43  36  75 S7          N/A
KALOKO-HONOKO* NOT AVBL
PALI 2*          N/A     61  54  77 S7          N/A
KEALAKOMO*       N/A     73  57  56 NE3G9       N/A
KAUPULEHU*     NOT AVBL
KAPAPALA*        N/A     63  53  70 N6          N/A
LOWER KAHUKU*  NOT AVBL
PUHE CS*       NOT AVBL
PUHO CS*       NOT AVBL
PTA KEAMUKU*     N/A     57  50  77 CALM        N/A
WAIKOLOA*      NOT AVBL
$$

HIZ027>028-271700-
BIG ISLAND OF HAWAII INTERIOR AND SUMMMITS-

CITY           SKY/WX    TMP DP  RH WIND       PRES   REMARKS
BRADSHAW FIELD NOT AVBL
MK VISITOR CEN   N/A     52  -9   7 N3          N/A
MAUNA KEA*       N/A     37 -13  11 NE7         N/A
MAUNA LOA*     NOT AVBL
MAUNA LOA 1*   NOT AVBL
PTA KIPUKA*      N/A     48  46  93 E3          N/A
PTA RANGE 17*    N/A     48  37  66 E9G18       N/A
PTA WEST*        N/A     52  39  62 E14G21      N/A
NENE CABIN*    NOT AVBL
AHUMOA*        NOT AVBL
PTA PORTABLE*  NOT AVBL
PUU MALI*        N/A     46  37  71 S6          N/A
$$

HIC003-271700-
NORTHWEST ISLANDS-

CITY           SKY/WX    TMP DP  RH WIND       PRES   REMARKS
MIDWAY ISLAND  PTCLDY    63  46  55 N12G18    30.30S
MIDWAY NOS*    NOT AVBL
FRENCH FRIGATE NOT AVBL
$$

PHZ110>124-180-271700-
BUOY REPORTS

STATION/POSITION TIME  TEMP    WIND        PRES    WAVE   SWELL
                       AIR SEA DIR/SP/G            HT/PER HT/DIR
                 (UTC) (F)     (DEG/KT/KT) (MB)    (FT/S) (FT/D)
BUOY 51001       1550   75 78  160/ 10/ 12 1017.1R   6/ 9   5/ 90
BUOY 51101       1550   75 77  170/ 10/ 10 1017.6S   5/ 9   5/140
BUOY 51100       NOT AVBL
BUOY 51002       1550   77 78   80/ 16/ 19 1014.8R   6/ 9   5/100
BUOY 51003       1550   74 79  360/ 10/ 16 1016.1R   6/ 8   5/120
BUOY 51004       1450      78   80/ 16/ 19 1015.1    7/ 7   5/ 90
BARBERS PT BUOY  NOT AVBL
WAIMEA BAY BUOY  1502      77                N/A     3/11   2/310
KAILUA BAY BUOY  1534      78                N/A     5/ 6   2/ 10
LANAI BUOY       1545      79                N/A     3/17   2/200
BARBERS PT 2     NOT AVBL
PAUWELA MAUI     1539      77                N/A     4/11   2/330
HILO             1542      78                N/A     5/12   2/330
KANEOHE BAY BUOY 1555      78                N/A     4/ 6   2/ 20
HANALEI KAUAI    1552      79                N/A     4/ 8   2/300
KAHULUI HARBOR   1548          270/  2/  3   N/A
HONOLULU HARBOR  1548           CALM  /  2   N/A
KILO NALU        NOT AVBL
HILO HARBOR      1548          190/  6/ 10   N/A
MOKUOLOE         1536   75 79  110/  6/  9 1016.8R
NAWILIWILI       1548   70     270/  7/  8 1017.0R
WHOTS BUOY       NOT AVBL
BUOY 51028       NOT AVBL
$$

......................KEY........................................
  SKY/WX - SKY CONDITIONS/PRESENT WEATHER
  TMP    - TEMPERATURE IN FAHRENHEIT
  DWPT   - DEWPOINT IN FAHRENHEIT
  RH     - RELATIVE HUMIDITY IN PERCENT
  WIND   - DIRECTION AND SPEED /MPH FOR ISLANDS...KTS FOR BUOYS/
  PRES   - MEAN SEA LEVEL PRESSURE IN INCHES OF HG
  VSB    - VISIBILITY IN MILES
  HX     - HEAT INDEX
  WCI    - WIND CHILL INDEX
  VRB    - VARIABLE WIND DIRECTION
  N/A    - NOT AVAILABLE




USA.gov is the U.S. government's official web portal to all federal, state and local government web resources and services.